EW5835 Weather Reports


Display with metric or nautical units.
time (UTC)temp
F
wind
direction
speed
MPH
gust
MPH
rain 1hr
in
rain 24hr
in
rain mn
in
humidity
%
barometer
mb
20260505011332 55 258 0.0 0.0 0.00 0.00 0.00 67 1009.6
20260505010833 56 258 0.0 0.0 0.00 0.00 0.00 65 1009.6
20260505010335 56 276 0.0 0.0 0.00 0.00 0.00 63 1009.3
20260505010331 56 250 0.0 0.0 0.00 0.00 0.00 64 1009.5
20260505005330 57 276 0.0 0.0 0.00 0.00 0.00 62 1009.2
20260505004837 58 214 0.0 0.0 0.00 0.00 0.00 60 1009.1
20260505004834 57 214 0.0 0.0 0.00 0.00 0.00 61 1009.2
20260505003830 58 214 0.0 0.0 0.00 0.00 0.00 59 1009.0
20260505003331 59 214 0.0 0.0 0.00 0.00 0.00 57 1009.0
20260505002832 60 214 0.0 0.0 0.00 0.00 0.00 54 1009.0
20260505002330 60 329 0.0 0.0 0.00 0.00 0.00 53 1008.9
20260505001830 60 323 0.0 0.0 0.00 0.00 0.00 54 1008.7
20260505001329 60 323 0.0 0.0 0.00 0.00 0.00 55 1008.6
20260505000830 61 321 0.0 0.0 0.00 0.00 0.00 53 1008.5
20260505000331 62 266 0.0 0.0 0.00 0.00 0.00 46 1008.4
20260504235828 63 266 0.0 0.0 0.00 0.00 0.00 46 1008.3
20260504235330 64 305 0.0 0.0 0.00 0.00 0.00 45 1008.3
20260504234828 65 305 0.0 0.0 0.00 0.00 0.00 44 1008.3
20260504234336 66 268 0.0 0.0 0.00 0.00 0.00 42 1008.1
20260504234330 65 324 0.0 0.0 0.00 0.00 0.00 42 1008.2
20260504233331 66 344 0.0 0.0 0.00 0.00 0.00 40 1007.9
20260504232830 67 336 0.0 0.0 0.00 0.00 0.00 40 1007.9
20260504232328 67 264 0.0 0.0 0.00 0.00 0.00 39 1007.8
20260504231830 68 238 0.0 1.0 0.00 0.00 0.00 37 1007.8
20260504231328 68 269 0.0 1.0 0.00 0.00 0.00 40 1007.8
20260504230829 68 295 0.0 2.0 0.00 0.00 0.00 38 1007.8
20260504230327 69 331 0.0 2.0 0.00 0.00 0.00 38 1007.7
20260504225828 69 266 0.0 0.0 0.00 0.00 0.00 35 1007.7
20260504225329 69 243 0.0 0.0 0.00 0.00 0.00 35 1007.6
20260504224830 70 87 0.0 0.0 0.00 0.00 0.00 35 1007.5
20260504224826 70 302 0.0 0.0 0.00 0.00 0.00 35 1007.6
20260504223826 71 296 0.0 0.0 0.00 0.00 0.00 35 1007.5
20260504223329 71 303 0.0 0.0 0.00 0.00 0.00 36 1007.5
20260504222826 70 282 0.0 1.0 0.00 0.00 0.00 33 1007.5
20260504222326 70 254 0.0 1.0 0.00 0.00 0.00 37 1007.5
20260504221827 70 312 0.0 5.0 0.00 0.00 0.00 35 1007.5
20260504221327 70 306 0.0 5.0 0.00 0.00 0.00 34 1007.5
20260504220826 70 292 0.0 1.0 0.00 0.00 0.00 35 1007.6
20260504220326 71 268 0.0 1.0 0.00 0.00 0.00 35 1007.5
20260504215826 71 310 0.0 0.0 0.00 0.00 0.00 35 1007.4
20260504215326 70 124 0.0 1.0 0.00 0.00 0.00 37 1007.4
20260504214830 70 320 0.0 1.0 0.00 0.00 0.00 35 1007.6
20260504214826 70 261 0.0 1.0 0.00 0.00 0.00 36 1007.6
20260504213824 70 276 0.0 2.0 0.00 0.00 0.00 36 1007.7
20260504213325 70 223 0.0 10.0 0.00 0.00 0.00 36 1007.7
20260504212825 70 300 3.0 10.0 0.00 0.00 0.00 34 1007.6
20260504212324 70 252 0.0 10.0 0.00 0.00 0.00 36 1007.7
20260504211829 71 223 0.0 5.0 0.00 0.00 0.00 35 1007.7
20260504211824 70 299 0.0 10.0 0.00 0.00 0.00 35 1007.8
20260504210823 71 264 1.0 5.0 0.00 0.00 0.00 34 1007.8
20260504210324 71 275 0.0 0.0 0.00 0.00 0.00 35 1007.9
20260504205825 71 290 0.0 5.0 0.00 0.00 0.00 35 1007.8
20260504205324 70 0 0.0 5.0 0.00 0.00 0.00 34 1007.9
20260504204825 71 11 0.0 9.0 0.00 0.00 0.00 35 1007.9
20260504204323 70 323 0.0 9.0 0.00 0.00 0.00 35 1007.9
20260504203823 70 278 1.0 10.0 0.00 0.00 0.00 35 1007.7
20260504203323 69 235 0.0 12.0 0.00 0.00 0.00 35 1007.8
20260504202822 69 265 1.0 12.0 0.00 0.00 0.00 36 1007.8
20260504202322 70 247 2.0 11.0 0.00 0.00 0.00 34 1007.9
20260504201823 70 257 1.0 11.0 0.00 0.00 0.00 35 1007.9
20260504201323 71 288 0.0 9.0 0.00 0.00 0.00 35 1008.1
20260504200821 71 336 0.0 10.0 0.00 0.00 0.00 38 1007.9
20260504200321 71 266 0.0 16.0 0.00 0.00 0.00 35 1008.3
20260504195820 70 281 4.0 16.0 0.00 0.00 0.00 35 1008.3
20260504195322 70 314 1.0 16.0 0.00 0.00 0.00 34 1008.3
20260504194822 70 274 1.0 4.0 0.00 0.00 0.00 36 1008.3
20260504194329 71 251 0.0 1.0 0.00 0.00 0.00 37 1008.5
20260504194323 71 258 0.0 1.0 0.00 0.00 0.00 35 1008.5
20260504193321 71 255 0.0 10.0 0.00 0.00 0.00 36 1008.6
20260504192821 70 324 0.0 15.0 0.00 0.00 0.00 36 1008.6
20260504192329 70 269 1.0 10.0 0.00 0.00 0.00 36 1008.7
20260504192320 70 221 0.0 15.0 0.00 0.00 0.00 34 1008.6
20260504191821 71 251 0.0 2.0 0.00 0.00 0.00 37 1008.6
20260504191321 70 254 0.0 12.0 0.00 0.00 0.00 37 1008.6
20260504190821 70 286 1.0 12.0 0.00 0.00 0.00 35 1008.8
20260504185819 70 262 1.0 10.0 0.00 0.00 0.00 35 1008.7
20260504185324 71 227 1.0 7.0 0.00 0.00 0.00 37 1008.8
20260504185319 70 248 1.0 9.0 0.00 0.00 0.00 33 1008.9
20260504184318 71 275 0.0 2.0 0.00 0.00 0.00 36 1008.8
20260504183819 70 24 0.0 3.0 0.00 0.00 0.00 39 1008.8
20260504183318 70 230 0.0 18.0 0.00 0.00 0.00 37 1008.9
20260504182818 69 305 4.0 18.0 0.00 0.00 0.00 35 1008.9
20260504182318 69 351 2.0 13.0 0.00 0.00 0.00 35 1008.9
20260504181819 69 279 0.0 7.0 0.00 0.00 0.00 36 1009.1
20260504181319 69 310 0.0 9.0 0.00 0.00 0.00 38 1009.1
20260504180818 69 283 1.0 9.0 0.00 0.00 0.00 37 1009.2
20260504180317 69 289 0.0 4.0 0.00 0.00 0.00 38 1009.2
20260504175818 68 292 0.0 9.0 0.00 0.00 0.00 38 1009.2
20260504175318 67 344 2.0 9.0 0.00 0.00 0.00 38 1009.3
20260504174817 67 272 0.0 10.0 0.00 0.00 0.00 39 1009.4
20260504174317 67 288 3.0 10.0 0.00 0.00 0.00 38 1009.5
20260504173816 67 265 1.0 9.0 0.00 0.00 0.00 39 1009.4
20260504173316 67 274 1.0 9.0 0.00 0.00 0.00 38 1009.5
20260504172817 67 269 0.0 9.0 0.00 0.00 0.00 40 1009.6
20260504172315 67 279 0.0 12.0 0.00 0.00 0.00 41 1009.5
20260504171816 67 331 2.0 14.0 0.00 0.00 0.00 38 1009.5
20260504171317 66 278 1.0 22.0 0.00 0.00 0.00 40 1009.6
20260504170815 66 271 4.0 22.0 0.00 0.00 0.00 41 1009.8
20260504170320 66 314 0.0 2.0 0.00 0.00 0.00 42 1009.8
20260504170315 66 313 1.0 10.0 0.00 0.00 0.00 40 1009.9
20260504160314 62 314 0.0 4.0 0.00 0.00 0.00 40 1010.5
20260504150812 62 271 0.0 11.0 0.00 0.00 0.00 42 1011.0
20260504150318 61 341 0.0 7.0 0.00 0.00 0.00 45 1011.0
20260504150313 62 272 0.0 4.0 0.00 0.00 0.00 43 1011.0
20260504141309 59 245 0.0 3.0 0.00 0.00 0.00 45 1011.3
20260504140810 59 243 0.0 3.0 0.00 0.00 0.00 45 1011.3
20260504140309 59 238 0.0 3.0 0.00 0.00 0.00 47 1011.5
20260504130807 55 299 0.0 9.0 0.00 0.00 0.00 49 1012.1
20260504130308 55 230 1.0 9.0 0.00 0.00 0.00 50 1012.2
20260504120305 46 243 0.0 0.0 0.00 0.00 0.00 76 1012.5
20260504110303 35 268 0.0 0.0 0.00 0.00 0.00 94 1012.6
20260504100302 31 271 0.0 0.0 0.00 0.00 0.00 94 1012.9
20260504081258 32 279 0.0 0.0 0.00 0.00 0.00 92 1012.5
20260504080804 32 279 0.0 0.0 0.00 0.00 0.00 92 1012.5
20260504080800 32 279 0.0 0.0 0.00 0.00 0.00 92 1012.4
20260504080414 32 279 0.0 0.0 0.00 0.00 0.00 92 1012.5
20260504070255 33 266 0.0 0.0 0.00 0.00 0.00 91 1012.4
20260504050752 35 251 0.0 0.0 0.00 0.00 0.00 88 1012.1
20260504045751 35 238 0.0 0.0 0.00 0.00 0.00 88 1012.2
20260504045251 35 238 0.0 0.0 0.00 0.00 0.00 87 1012.2
20260504044758 36 271 0.0 0.0 0.00 0.00 0.00 87 1012.1
20260504044752 35 238 0.0 0.0 0.00 0.00 0.00 87 1012.1
20260504044251 36 238 0.0 0.0 0.00 0.00 0.00 87 1012.2
20260504043251 36 271 0.0 0.0 0.00 0.00 0.00 86 1012.1
20260504042752 36 271 0.0 0.0 0.00 0.00 0.00 86 1012.1
20260504042255 36 271 0.0 0.0 0.00 0.00 0.00 85 1012.1
20260504042249 36 271 0.0 0.0 0.00 0.00 0.00 86 1012.1
20260504041249 36 271 0.0 0.0 0.00 0.00 0.00 86 1012.1
20260504040748 36 271 0.0 0.0 0.00 0.00 0.00 85 1012.0
20260504040253 37 271 0.0 0.0 0.00 0.00 0.00 85 1012.0
20260504040248 37 271 0.0 0.0 0.00 0.00 0.00 85 1012.0
20260504035250 37 266 0.0 0.0 0.00 0.00 0.00 84 1012.0
20260504034753 37 264 0.0 0.0 0.00 0.00 0.00 83 1012.0
20260504034748 37 264 0.0 0.0 0.00 0.00 0.00 84 1012.1
20260504034403 37 264 0.0 0.0 0.00 0.00 0.00 83 1011.9
20260504033248 38 264 0.0 0.0 0.00 0.00 0.00 83 1012.0
20260504032748 38 262 0.0 0.0 0.00 0.00 0.00 83 1012.0
20260504032253 38 262 0.0 0.0 0.00 0.00 0.00 81 1012.1
20260504032248 38 262 0.0 0.0 0.00 0.00 0.00 82 1012.1
20260504031748 38 262 0.0 0.0 0.00 0.00 0.00 82 1012.0
20260504030746 38 262 0.0 0.0 0.00 0.00 0.00 81 1012.1
20260504030247 38 262 0.0 0.0 0.00 0.00 0.00 81 1012.0
20260504025747 38 266 0.0 0.0 0.00 0.00 0.00 81 1011.9
20260504025248 38 266 0.0 0.0 0.00 0.00 0.00 81 1011.9
20260504024747 38 266 0.0 0.0 0.00 0.00 0.00 79 1011.8
20260504024252 39 266 0.0 0.0 0.00 0.00 0.00 79 1011.8
20260504024247 39 266 0.0 0.0 0.00 0.00 0.00 79 1011.8
20260504023247 39 266 0.0 0.0 0.00 0.00 0.00 79 1011.9
20260504022746 40 266 0.0 0.0 0.00 0.00 0.00 78 1011.9
20260504022245 40 266 0.0 0.0 0.00 0.00 0.00 76 1011.8
20260504021746 40 266 0.0 0.0 0.00 0.00 0.00 76 1011.7
20260504021251 41 268 0.0 0.0 0.00 0.00 0.00 76 1011.6
20260504021245 40 266 0.0 0.0 0.00 0.00 0.00 76 1011.7
20260504020745 41 266 0.0 0.0 0.00 0.00 0.00 76 1011.6
20260504015745 41 258 0.0 0.0 0.00 0.00 0.00 75 1011.7
20260504015245 41 268 0.0 0.0 0.00 0.00 0.00 73 1011.6
20260504014750 42 268 0.0 0.0 0.00 0.00 0.00 71 1011.5
20260504014744 41 268 0.0 0.0 0.00 0.00 0.00 73 1011.6
20260504014245 42 268 0.0 0.0 0.00 0.00 0.00 72 1011.6
20260504013244 42 268 0.0 0.0 0.00 0.00 0.00 71 1011.6
20260504012745 43 268 0.0 0.0 0.00 0.00 0.00 71 1011.5
20260504012245 43 266 0.0 0.0 0.00 0.00 0.00 70 1011.5
20260504011744 43 274 0.0 0.0 0.00 0.00 0.00 69 1011.5